Location: Unspecified
(40.8819°N, 0.0000°E)
Time: 12:07:25
(UTC+00:00)

TIGRISAT - Visible Passes

Search period start: 17 September 2024 00:00
Search period end: 27 September 2024 00:00
Orbit: 591 x 668 km, 97.7° (Epoch: 16 September)

Date Brightness Start Highest point End Pass type
(mag) Time Alt. Az. Time Alt. Az. Time Alt. Az.
17 Sep ? 03:12:16 17° SE 03:15:00 38° ENE 03:18:57 10° N visible
17 Sep ? 04:49:39 13° WSW 04:51:30 17° W 04:54:17 10° NW visible
18 Sep ? 03:32:56 27° SSE 03:35:06 66° ENE 03:39:20 10° N visible
19 Sep ? 02:18:46 10° ENE 02:19:35 10° ENE 02:20:25 10° NE visible
19 Sep ? 03:53:34 35° S 03:55:16 72° W 03:59:32 10° NNW visible
20 Sep ? 02:36:51 10° ESE 02:39:30 17° ENE 02:42:15 10° NNE visible
20 Sep ? 04:14:13 33° SW 04:15:28 41° W 04:19:32 10° NNW visible
21 Sep ? 02:57:28 19° ESE 02:59:27 27° ENE 03:03:04 10° NNE visible
21 Sep ? 04:34:51 23° WSW 04:35:43 25° W 04:39:16 10° NW visible
22 Sep ? 03:18:06 33° ESE 03:19:28 44° ENE 03:23:34 10° N visible
22 Sep ? 04:55:29 15° W 04:56:02 15° W 04:58:32 10° NW visible
23 Sep ? 03:38:43 56° SE 03:39:31 76° ENE 03:43:51 10° N visible
24 Sep ? 02:22:14 10° E 02:23:54 12° ENE 02:25:35 10° NE visible
24 Sep ? 03:59:20 61° SW 03:59:39 63° W 04:03:56 10° NNW visible
25 Sep ? 02:42:33 17° E 02:43:46 19° ENE 02:46:51 10° NNE visible
25 Sep ? 04:19:56 37° W 04:19:56 37° W 04:23:50 10° NNW visible
26 Sep ? 03:03:09 29° E 03:03:42 30° ENE 03:07:30 10° N visible
26 Sep ? 04:40:32 22° W 04:40:32 22° W 04:43:27 10° NW visible
